Vorticity
7 6 8 8 9 10 11 12 12 13 10 10 10 9 8 8 9 9 9 8 9 10 12 10 10 10 9 11 10 9 2 6 15 17 -9 12 4 8 10 12 10 3 2 9 5
7 6 7 8 10 10 10 11 11 11 10 10 9 8 7 6 6 6 8 9 10 11 11 11 11 11 11 9 9 8 7 10 -6 6 9 9 3 4 14 8 5 8 8 3 3
6 7 7 8 9 11 11 12 12 12 11 9 11 12 11 12 12 17 21 19 13 12 14 17 14 11 12 12 11 12 5 11 4 -1 2 4 9 1 7 7 8 10 13 7 4
6 7 7 7 9 11 12 11 12 14 15 11 12 12 10 11 14 -0 -3 -2 -0 3 3 2 6 13 12 11 8 10 8 4 -3 13 5 5 -0 -3 11 3 8 8 8 4 4
7 8 9 9 9 10 11 10 11 13 12 12 13 13 10 10 10 12 13 16 15 14 15 14 14 9 5 15 12 11 8 7 11 -1 4 8 8 4 8 8 9 10 13 10 9
7 8 9 9 10 10 8 9 11 11 12 12 11 10 12 8 12 11 8 9 10 12 12 14 13 14 7 4 6 5 14 11 9 9 13 12 8 9 10 4 11 10 8 7 8
6 8 9 8 7 8 10 8 9 9 14 16 17 8 16 16 17 17 15 15 14 13 12 13 13 13 12 16 17 7 11 10 11 15 12 11 10 8 5 8 11 7 8 7 6
7 8 8 8 9 10 7 6 9 10 12 12 16 20 10 9 2 10 13 9 3 6 6 5 9 12 11 11 4 11 20 13 16 16 12 11 6 24 15 6 9 10 9 7 6
7 8 9 8 10 8 7 9 12 15 13 20 16 25 7 18 6 2 4 12 10 9 13 14 11 10 12 13 15 19 -8 29 11 17 14 11 23 15 1 20 12 4 8 9 9
7 9 9 9 9 8 7 8 12 14 19 13 7 11 -1 4 7 17 18 13 10 7 11 13 11 9 12 14 3 -0 15 -2 11 14 22 13 6 -8 15 24 2 20 17 13 10
6 8 11 10 8 9 9 9 14 5 13 1 5 2 6 -0 9 -0 4 2 10 3 11 8 10 9 1 5 11 -10 -0 1 6 7 5 12 14 15 11 -4 1 15 14 11 8
6 6 10 12 8 10 9 10 12 10 10 -5 4 18 6 19 23 17 12 17 15 16 5 16 13 9 4 9 10 12 11 12 13 7 4 5 5 5 6 10 11 8 5 6 8
7 6 7 10 10 10 10 10 14 18 1 -9 5 11 11 10 16 11 12 13 13 12 10 8 -0 8 11 12 10 12 13 12 -1 7 5 20 36 13 6 -0 7 7 6 12 3
10 9 8 6 13 9 10 11 17 16 7 4 6 -0 7 11 -10 10 3 17 16 5 14 28 26 25 25 14 15 23 15 15 13 21 5 11 2 2 14 30 29 10 11 5 4
9 11 9 9 10 10 10 12 18 19 20 -12 -2 -4 12 8 14 -4 7 14 15 23 19 -2 5 13 10 9 12 1 6 -0 2 6 9 30 4 33 40 11 -0 4 15 26 16
13 14 13 12 9 9 10 12 21 22 4 10 -6 -4 15 8 10 -0 13 21 14 18 16 11 6 17 11 9 10 14 14 14 16 21 17 36 -17 31 27 22 19 17 19 30 22
11 15 14 7 9 11 12 11 25 8 -11 1 -10 9 18 4 15 2 13 15 9 21 -7 17 7 12 13 12 15 15 10 19 8 4 6 16 11 -14 -13 3 10 34 36 19 5
14 12 11 25 7 12 12 20 17 1 2 -0 7 25 20 -1 6 2 11 6 4 1 26 5 10 3 2 -2 -5 12 2 -2 10 10 8 7 16 12 12 33 20 26 15 -2 -0
7 15 15 9 9 16 13 15 6 -1 -5 7 24 15 14 3 2 21 -4 34 1 -1 19 12 17 -8 8 12 13 11 12 14 2 17 7 7 12 15 19 10 22 13 -3 -3 4
18 23 24 9 16 13 17 14 10 11 9 17 20 10 -12 11 26 -4 28 9 -0 7 -12 8 15 19 9 5 17 9 2 8 13 10 11 25 4 -1 7 29 19 12 -2 1 1
15 26 9 12 21 4 8 15 14 7 11 16 2 1 11 15 1 23 6 -3 21 -1 -0 10 24 -4 -0 13 7 12 2 11 2 4 7 6 18 -1 -12 1 32 14 -3 -2 -14
17 26 11 14 12 9 11 19 14 -1 14 21 16 -2 18 5 16 26 6 1 -18 13 7 3 11 -1 -0 5 7 8 7 9 -3 24 2 2 11 -4 14 34 35 -0 -1 -2 -8
11 9 5 -19 -5 5 8 27 9 7 9 20 -7 8 10 10 23 2 10 11 3 18 10 -6 14 13 34 38 27 25 20 18 6 -7 13 -2 6 4 -6 7 15 10 5 1 -0
15 6 1 -4 18 14 18 11 4 8 9 -7 16 23 7 11 25 -5 -15 -0 5 15 8 10 13 -8 -41 -46 -51 -2 2 8 18 4 -4 -21 -21 -24 -22 -25 -14 10 6 2 -6
15 -1 14 6 14 8 19 14 5 6 -3 12 19 3 -0 9 -4 57 48 2 -25 16 35 27 8 15 13 20 18 13 7 6 6 5 -19 -30 -15 -11 -10 -11 13 26 48 32 37
11 8 9 10 7 6 11 1 16 -11 12 32 18 -5 -4 12 9 10 26 12 -1 14 23 28 14 14 7 -7 20 19 17 12 18 11 11 10 3 35 13 18 18 1 4 3 -1
10 8 9 10 7 19 5 1 -3 18 13 7 8 23 13 14 10 -4 9 26 21 13 8 -9 -4 10 22 12 -9 36 42 14 27 58 32 14 4 12 17 8 28 33 20 23 25
Height
3099 3095 3090 3086 3081 3076 3073 3069 3066 3064 3061 3059 3057 3055 3053 3052 3051 3050 3051 3051 3050 3050 3051 3052 3053 3054 3056 3057 3059 3061 3061 3060 3065 3068 3065 3064 3068 3070 3070 3073 3075 3075 3076 3083 3087
3098 3093 3089 3084 3080 3075 3069 3066 3063 3060 3058 3056 3054 3051 3050 3048 3046 3045 3046 3045 3044 3045 3046 3047 3048 3049 3050 3052 3054 3055 3053 3056 3057 3061 3058 3061 3064 3067 3068 3068 3071 3072 3074 3078 3081
3096 3091 3087 3082 3077 3073 3068 3064 3060 3057 3054 3051 3050 3048 3046 3044 3043 3041 3040 3040 3040 3040 3041 3041 3042 3044 3045 3046 3047 3049 3049 3049 3051 3056 3055 3059 3059 3060 3062 3061 3063 3068 3071 3074 3076
3095 3090 3085 3079 3075 3070 3065 3061 3057 3054 3051 3048 3046 3045 3042 3041 3042 3038 3037 3037 3037 3037 3038 3038 3038 3040 3041 3042 3041 3045 3044 3045 3047 3052 3052 3055 3054 3056 3058 3055 3057 3062 3065 3068 3071
3094 3089 3083 3078 3073 3068 3063 3059 3055 3051 3048 3045 3043 3041 3040 3038 3038 3035 3034 3033 3033 3032 3033 3033 3034 3035 3036 3035 3038 3040 3037 3040 3043 3047 3047 3048 3050 3050 3052 3051 3053 3056 3060 3062 3065
3092 3087 3082 3077 3072 3066 3061 3057 3052 3049 3046 3043 3041 3039 3037 3036 3034 3032 3031 3030 3029 3029 3030 3030 3031 3032 3031 3031 3034 3033 3032 3035 3037 3039 3041 3042 3043 3045 3046 3045 3049 3052 3054 3056 3059
3091 3085 3081 3075 3070 3065 3060 3054 3051 3047 3044 3041 3038 3036 3034 3034 3031 3030 3029 3027 3027 3027 3027 3027 3027 3028 3028 3029 3029 3030 3031 3030 3031 3033 3034 3036 3035 3036 3039 3040 3043 3045 3047 3050 3052
3088 3083 3078 3074 3069 3064 3059 3053 3049 3045 3042 3039 3037 3034 3033 3032 3031 3029 3027 3026 3026 3025 3025 3025 3024 3025 3025 3026 3026 3027 3026 3025 3024 3026 3028 3031 3028 3031 3031 3036 3038 3039 3040 3043 3046
3087 3082 3076 3071 3067 3062 3057 3051 3047 3043 3041 3038 3036 3034 3035 3033 3031 3028 3026 3025 3024 3023 3022 3022 3022 3022 3022 3022 3022 3021 3021 3022 3021 3022 3022 3025 3024 3023 3027 3029 3031 3033 3035 3037 3039
3085 3080 3075 3070 3065 3060 3055 3050 3045 3042 3040 3038 3036 3038 3036 3033 3030 3027 3026 3024 3023 3021 3021 3020 3019 3019 3020 3019 3019 3019 3018 3020 3018 3018 3018 3019 3020 3019 3022 3023 3025 3027 3029 3031 3033
3084 3079 3074 3068 3063 3059 3054 3049 3047 3043 3040 3038 3037 3035 3033 3032 3029 3026 3024 3023 3022 3020 3019 3018 3019 3017 3015 3016 3017 3017 3016 3017 3015 3014 3015 3015 3014 3016 3017 3018 3019 3021 3023 3025 3027
3083 3078 3073 3067 3062 3057 3052 3047 3043 3043 3039 3037 3037 3034 3031 3028 3026 3024 3024 3022 3019 3018 3017 3018 3016 3015 3015 3015 3015 3014 3013 3014 3012 3011 3012 3010 3006 3010 3009 3011 3014 3016 3018 3019 3020
3081 3076 3071 3066 3061 3057 3052 3048 3043 3039 3038 3037 3035 3032 3029 3028 3024 3023 3022 3019 3017 3016 3015 3014 3013 3012 3012 3011 3011 3010 3010 3011 3010 3009 3008 3005 2997 3001 3003 3002 3004 3007 3010 3013 3013
3078 3073 3068 3063 3061 3054 3051 3046 3042 3039 3037 3038 3034 3031 3029 3025 3024 3021 3019 3018 3015 3014 3012 3011 3010 3009 3009 3008 3009 3007 3007 3008 3007 3007 3006 3004 2996 2992 2993 2993 2993 2996 3001 3004 3004
3075 3070 3065 3060 3056 3052 3049 3044 3041 3039 3038 3037 3033 3030 3027 3027 3024 3021 3017 3014 3013 3011 3012 3010 3008 3007 3006 3006 3006 3006 3005 3005 3004 3004 3003 2999 3001 2983 2986 2986 2987 2988 2990 2995 2998
3071 3066 3061 3058 3054 3050 3046 3042 3040 3041 3035 3034 3032 3028 3026 3023 3021 3018 3016 3014 3011 3009 3009 3008 3007 3006 3005 3004 3004 3003 3003 3002 3001 3002 3000 2990 2993 2978 2977 2977 2979 2981 2983 2986 2993
3068 3063 3058 3054 3050 3046 3043 3040 3040 3037 3037 3034 3030 3027 3024 3022 3019 3017 3015 3013 3011 3009 3008 3005 3003 3002 3002 3002 3002 3002 3002 3000 3001 3002 2991 2986 2988 2974 2973 2973 2974 2974 2977 2985 2992
3066 3060 3055 3050 3047 3044 3041 3040 3037 3034 3033 3031 3028 3024 3022 3021 3018 3016 3014 3012 3010 3009 3007 3006 3001 3001 3000 3001 3001 2999 3000 3000 2995 2991 2989 2987 2980 2972 2972 2971 2972 2974 2979 2985 2990
3062 3057 3052 3048 3045 3042 3040 3037 3036 3034 3032 3029 3026 3022 3022 3020 3019 3015 3012 3010 3009 3008 3008 3004 3001 2999 2998 2997 2999 2996 2997 2998 2996 2992 2991 2979 2975 2973 2970 2971 2971 2975 2980 2984 2986
3059 3054 3049 3046 3043 3041 3039 3037 3035 3033 3031 3028 3025 3024 3021 3020 3018 3015 3010 3008 3007 3006 3005 3004 3000 2995 2995 2995 2994 2994 2996 2996 2996 2992 2988 2973 2972 2970 2971 2971 2972 2975 2979 2980 2981
3057 3052 3049 3045 3043 3041 3038 3036 3034 3032 3029 3028 3025 3022 3021 3017 3014 3012 3009 3007 3004 3004 3002 3001 2999 2995 2993 2991 2990 2992 2992 2992 2993 2991 2987 2985 2971 2969 2970 2972 2972 2975 2976 2977 2977
3056 3053 3050 3045 3044 3041 3039 3036 3033 3030 3028 3025 3023 3021 3018 3015 3011 3009 3007 3005 3003 3002 3000 2998 2996 2992 2990 2987 2987 2988 2988 2989 2990 2988 2986 2985 2974 2969 2969 2969 2971 2972 2973 2973 2972
3054 3052 3049 3046 3042 3040 3038 3035 3032 3028 3026 3023 3022 3019 3016 3013 3011 3006 3005 3002 3000 2999 2996 2995 2993 2991 2984 2986 2985 2983 2984 2986 2985 2984 2980 2983 2972 2969 2969 2970 2971 2971 2969 2967 2964
3053 3050 3047 3043 3040 3037 3034 3032 3030 3027 3024 3021 3018 3015 3011 3007 3008 3002 3000 2998 2995 2994 2993 2991 2988 2989 2985 2983 2983 2981 2980 2981 2981 2978 2973 2964 2966 2968 2968 2966 2966 2965 2962 2960 2957
3052 3050 3046 3042 3039 3036 3032 3030 3027 3023 3020 3017 3013 3011 3008 3001 2998 2996 2994 2990 2989 2987 2985 2984 2978 2979 2976 2977 2977 2974 2973 2972 2968 2967 2967 2960 2960 2961 2961 2958 2956 2954 2951 2952 2950
3051 3047 3045 3040 3037 3033 3029 3028 3025 3021 3018 3012 3010 3007 3004 3000 2997 2989 2988 2987 2981 2980 2978 2975 2970 2971 2968 2971 2970 2964 2965 2960 2959 2957 2953 2955 2949 2955 2952 2950 2950 2948 2947 2947 2946
3048 3046 3043 3039 3035 3032 3030 3025 3021 3016 3014 3011 3007 3000 2997 2994 2990 2986 2981 2976 2972 2972 2972 2971 2968 2968 2965 2967 2963 2962 2958 2955 2953 2951 2949 2949 2948 2949 2947 2946 2945 2944 2944 2943 2942